{"data":{"norad_id":64491,"epoch":"2026-09-20T08:15:10.398240Z","epoch_age_seconds":145055,"freshness":"FRESH","line1":"1 64491U 25133V   26263.34387035  .00011237  00000+0  34326-3 0  9994","line2":"2 64491  53.1639 286.7714 0001097  76.9560 283.1566 15.34394990 71048","mean_motion":15.3439499,"eccentricity":0.0001097,"inclination_deg":53.1639,"raan_deg":286.7714,"arg_perigee_deg":76.956,"mean_anomaly_deg":283.1566,"bstar":0.00034326,"rev_number":7104,"period_min":93.848064506519,"perigee_km":461.96768921556,"apogee_km":463.46857283131,"semimajor_km":6840.8551310234,"source":"CELESTRAK","updated_at":"2026-09-21T09:00:35.362075Z"}}